| time (UTC) | temp F | wind direction | speed knots | gust knots | rain 1hr in | rain 24hr in | rain mn in | humidity % | barometer mb |
| 20260507081535 | 44 | 24 | 0.0 | 0.0 | 0.00 | 0.00 | 0.00 | 87 | 1019.4 |
| 20260507080034 | 44 | 24 | 0.0 | 0.0 | 0.00 | 0.00 | 0.00 | 86 | 1019.1 |
| 20260507074530 | 44 | 24 | 0.0 | 0.0 | 0.00 | 0.00 | 0.00 | 85 | 1019.5 |
| 20260507073030 | 45 | 24 | 0.0 | 0.0 | 0.00 | 0.00 | 0.00 | 84 | 1019.0 |
| 20260507071526 | 46 | 24 | 0.0 | 0.0 | 0.00 | 0.00 | 0.00 | 84 | 1019.2 |
| 20260507070022 | 46 | 24 | 0.0 | 0.0 | 0.00 | 0.00 | 0.00 | 83 | 1019.4 |
| 20260507064523 | 47 | 24 | 0.0 | 0.0 | 0.00 | 0.00 | 0.00 | 81 | 1019.5 |
| 20260507063031 | 47 | 24 | 0.0 | 0.0 | 0.00 | 0.00 | 0.00 | 80 | 1019.5 |
| 20260507061516 | 48 | 24 | 0.0 | 0.9 | 0.00 | 0.00 | 0.00 | 79 | 1019.5 |
| 20260507060029 | 48 | 24 | 0.9 | 2.6 | 0.00 | 0.00 | 0.00 | 79 | 1019.0 |
| 20260507054512 | 49 | 24 | 0.0 | 2.6 | 0.00 | 0.00 | 0.00 | 79 | 1019.2 |
| 20260507053008 | 49 | 25 | 0.0 | 2.6 | 0.00 | 0.00 | 0.00 | 77 | 1019.2 |
| 20260507051508 | 49 | 24 | 0.9 | 2.6 | 0.00 | 0.00 | 0.00 | 77 | 1019.1 |
| 20260507050004 | 49 | 24 | 0.9 | 2.6 | 0.00 | 0.00 | 0.00 | 76 | 1019.1 |
| 20260507044503 | 49 | 34 | 1.7 | 2.6 | 0.00 | 0.00 | 0.00 | 75 | 1018.9 |
| 20260507043003 | 49 | 30 | 1.7 | 3.5 | 0.00 | 0.00 | 0.00 | 76 | 1019.1 |
| 20260507041502 | 49 | 28 | 0.0 | 1.7 | 0.00 | 0.00 | 0.00 | 77 | 1018.9 |
| 20260507040001 | 50 | 28 | 0.0 | 0.9 | 0.00 | 0.00 | 0.00 | 75 | 1019.0 |
| 20260507034616 | 51 | 28 | 0.0 | 0.9 | 0.00 | 0.00 | 0.00 | 73 | 1019.0 |
| 20260507033104 | 52 | 28 | 0.0 | 1.7 | 0.00 | 0.00 | 0.00 | 71 | 1018.7 |
| 20260507031619 | 53 | 28 | 0.9 | 2.6 | 0.00 | 0.00 | 0.00 | 70 | 1018.5 |
| 20260507030159 | 53 | 28 | 0.9 | 2.6 | 0.00 | 0.00 | 0.00 | 69 | 1018.5 |
| 20260507024558 | 54 | 28 | 0.9 | 2.6 | 0.00 | 0.00 | 0.00 | 66 | 1018.4 |
| 20260507023057 | 55 | 28 | 1.7 | 3.5 | 0.00 | 0.00 | 0.00 | 64 | 1018.4 |
| 20260507021557 | 55 | 26 | 0.9 | 2.6 | 0.00 | 0.00 | 0.00 | 63 | 1018.2 |
| 20260507020058 | 56 | 25 | 0.0 | 4.3 | 0.00 | 0.00 | 0.00 | 61 | 1018.1 |
| 20260507014559 | 57 | 30 | 0.0 | 2.6 | 0.00 | 0.00 | 0.00 | 60 | 1017.9 |
| 20260507013111 | 58 | 37 | 1.7 | 4.3 | 0.00 | 0.00 | 0.00 | 58 | 1017.7 |
| 20260507011558 | 59 | 43 | 1.7 | 7.0 | 0.00 | 0.00 | 0.00 | 56 | 1017.5 |
| 20260507010104 | 60 | 35 | 2.6 | 7.0 | 0.00 | 0.00 | 0.00 | 53 | 1017.4 |
| 20260507004653 | 61 | 13 | 3.5 | 6.1 | 0.00 | 0.00 | 0.00 | 51 | 1017.1 |
| 20260507003053 | 62 | 11 | 3.5 | 7.8 | 0.00 | 0.00 | 0.00 | 50 | 1017.2 |
| 20260507001555 | 63 | 58 | 3.5 | 8.7 | 0.00 | 0.00 | 0.00 | 50 | 1016.9 |
| 20260507000051 | 64 | 23 | 2.6 | 8.7 | 0.00 | 0.00 | 0.00 | 50 | 1016.9 |
| 20260506234551 | 65 | 51 | 3.5 | 10.4 | 0.00 | 0.00 | 0.00 | 48 | 1016.8 |
| 20260506233103 | 65 | 48 | 1.7 | 5.2 | 0.00 | 0.00 | 0.00 | 46 | 1016.7 |
| 20260506231550 | 66 | 48 | 1.7 | 8.7 | 0.00 | 0.00 | 0.00 | 46 | 1016.5 |
| 20260506230049 | 67 | 20 | 5.2 | 12.2 | 0.00 | 0.00 | 0.00 | 46 | 1016.4 |
| 20260506224548 | 67 | 30 | 4.3 | 11.3 | 0.00 | 0.00 | 0.00 | 46 | 1016.2 |
| 20260506223049 | 68 | 11 | 2.6 | 8.7 | 0.00 | 0.00 | 0.00 | 47 | 1016.1 |
| 20260506221553 | 67 | 35 | 5.2 | 10.4 | 0.00 | 0.00 | 0.00 | 46 | 1016.0 |
| 20260506220044 | 67 | 340 | 6.1 | 11.3 | 0.00 | 0.00 | 0.00 | 47 | 1015.8 |
| 20260506214544 | 67 | 38 | 4.3 | 8.7 | 0.00 | 0.00 | 0.00 | 49 | 1016.1 |
| 20260506213043 | 66 | 66 | 3.5 | 9.6 | 0.00 | 0.00 | 0.00 | 52 | 1016.1 |
| 20260506211542 | 66 | 35 | 3.5 | 9.6 | 0.00 | 0.00 | 0.00 | 49 | 1016.1 |
| 20260506210043 | 67 | 26 | 2.6 | 8.7 | 0.00 | 0.00 | 0.00 | 49 | 1016.4 |
| 20260506204541 | 67 | 5 | 2.6 | 10.4 | 0.00 | 0.00 | 0.00 | 48 | 1016.5 |
| 20260506203040 | 66 | 27 | 3.5 | 13.9 | 0.00 | 0.00 | 0.00 | 51 | 1016.8 |
| 20260506201541 | 67 | 49 | 5.2 | 10.4 | 0.00 | 0.00 | 0.00 | 48 | 1017.0 |
| 20260506200043 | 67 | 35 | 1.7 | 7.8 | 0.00 | 0.00 | 0.00 | 51 | 1016.8 |
| 20260506194638 | 66 | 34 | 2.6 | 10.4 | 0.00 | 0.00 | 0.00 | 52 | 1016.9 |
| 20260506193036 | 66 | 36 | 2.6 | 7.8 | 0.00 | 0.00 | 0.00 | 53 | 1017.1 |
| 20260506191535 | 67 | 46 | 2.6 | 8.7 | 0.00 | 0.00 | 0.00 | 53 | 1017.4 |
| 20260506190032 | 66 | 46 | 4.3 | 9.6 | 0.00 | 0.00 | 0.00 | 52 | 1017.6 |
| 20260506184534 | 65 | 24 | 2.6 | 7.0 | 0.00 | 0.00 | 0.00 | 53 | 1017.6 |
| 20260506183035 | 64 | 76 | 3.5 | 8.7 | 0.00 | 0.00 | 0.00 | 55 | 1017.9 |
| 20260506181534 | 65 | 14 | 2.6 | 8.7 | 0.00 | 0.00 | 0.00 | 54 | 1018.1 |
| 20260506180028 | 66 | 42 | 2.6 | 10.4 | 0.00 | 0.00 | 0.00 | 56 | 1018.0 |
| 20260506174528 | 65 | 20 | 2.6 | 7.8 | 0.00 | 0.00 | 0.00 | 58 | 1018.1 |
| 20260506173028 | 65 | 15 | 3.5 | 8.7 | 0.00 | 0.00 | 0.00 | 55 | 1018.6 |
| 20260506171526 | 65 | 22 | 3.5 | 10.4 | 0.00 | 0.00 | 0.00 | 59 | 1019.2 |
| 20260506170024 | 65 | 103 | 1.7 | 10.4 | 0.00 | 0.00 | 0.00 | 55 | 1019.2 |
| 20260506164519 | 64 | 18 | 3.5 | 10.4 | 0.00 | 0.00 | 0.00 | 59 | 1019.1 |
| 20260506163023 | 64 | 38 | 5.2 | 10.4 | 0.00 | 0.00 | 0.00 | 58 | 1018.9 |
| 20260506161516 | 64 | 19 | 4.3 | 11.3 | 0.00 | 0.00 | 0.00 | 59 | 1019.1 |
| 20260506160017 | 62 | 86 | 4.3 | 9.6 | 0.00 | 0.00 | 0.00 | 59 | 1018.8 |
| 20260506154508 | 60 | 169 | 0.9 | 7.0 | 0.00 | 0.00 | 0.00 | 61 | 1018.5 |
| 20260506153003 | 59 | 21 | 3.5 | 8.7 | 0.00 | 0.00 | 0.00 | 61 | 1018.0 |
| 20260506151559 | 57 | 24 | 5.2 | 12.2 | 0.00 | 0.00 | 0.00 | 65 | 1017.7 |
| 20260506150055 | 56 | 119 | 1.7 | 8.7 | 0.00 | 0.00 | 0.00 | 67 | 1017.5 |
| 20260506144554 | 56 | 44 | 1.7 | 9.6 | 0.00 | 0.00 | 0.00 | 68 | 1017.7 |
| 20260506143051 | 55 | 37 | 2.6 | 7.8 | 0.00 | 0.00 | 0.00 | 70 | 1017.7 |
| 20260506141605 | 53 | 35 | 3.5 | 8.7 | 0.00 | 0.00 | 0.00 | 72 | 1017.2 |
| 20260506140043 | 52 | 118 | 1.7 | 8.7 | 0.00 | 0.00 | 0.00 | 72 | 1017.8 |
| 20260506134540 | 52 | 55 | 1.7 | 9.6 | 0.00 | 0.00 | 0.00 | 74 | 1017.8 |
| 20260506133127 | 51 | 107 | 1.7 | 7.0 | 0.00 | 0.00 | 0.00 | 75 | 1017.5 |
| 20260506131544 | 50 | 135 | 2.6 | 11.3 | 0.00 | 0.00 | 0.00 | 76 | 1017.8 |
| 20260506130006 | 50 | 5 | 5.2 | 11.3 | 0.00 | 0.00 | 0.00 | 78 | 1017.6 |
| 20260506124601 | 49 | 21 | 2.6 | 7.8 | 0.00 | 0.00 | 0.00 | 82 | 1017.5 |
| 20260506123029 | 49 | 5 | 3.5 | 10.4 | 0.00 | 0.00 | 0.00 | 83 | 1017.3 |
| 20260506121521 | 49 | 355 | 2.6 | 9.6 | 0.00 | 0.00 | 0.00 | 83 | 1016.8 |
| 20260506120020 | 48 | 33 | 2.6 | 8.7 | 0.00 | 0.00 | 0.00 | 83 | 1016.7 |
| 20260506114512 | 48 | 14 | 4.3 | 12.2 | 0.00 | 0.00 | 0.00 | 83 | 1017.1 |
| 20260506113011 | 48 | 22 | 3.5 | 9.6 | 0.00 | 0.00 | 0.00 | 83 | 1017.3 |
| 20260506111508 | 48 | 54 | 3.5 | 8.7 | 0.00 | 0.00 | 0.00 | 83 | 1017.1 |
| 20260506110005 | 48 | 18 | 5.2 | 9.6 | 0.00 | 0.00 | 0.00 | 83 | 1017.0 |
| 20260506104501 | 48 | 32 | 1.7 | 7.0 | 0.00 | 0.00 | 0.00 | 83 | 1016.5 |
| 20260506103100 | 48 | 18 | 2.6 | 7.0 | 0.00 | 0.00 | 0.00 | 83 | 1016.3 |
| 20260506101558 | 48 | 31 | 1.7 | 7.8 | 0.00 | 0.00 | 0.00 | 82 | 1016.2 |
| 20260506100056 | 49 | 30 | 4.3 | 9.6 | 0.00 | 0.00 | 0.00 | 82 | 1015.9 |
| 20260506094554 | 49 | 42 | 2.6 | 5.2 | 0.00 | 0.00 | 0.00 | 82 | 1015.8 |
| 20260506093053 | 49 | 14 | 2.6 | 4.3 | 0.00 | 0.00 | 0.00 | 82 | 1015.4 |
| 20260506091548 | 49 | 46 | 1.7 | 7.0 | 0.00 | 0.00 | 0.00 | 82 | 1014.6 |
| 20260506090046 | 49 | 20 | 3.5 | 7.8 | 0.00 | 0.00 | 0.00 | 82 | 1014.3 |
| 20260506084544 | 49 | 38 | 1.7 | 7.0 | 0.00 | 0.00 | 0.00 | 82 | 1014.4 |
| 20260506083044 | 49 | 27 | 3.5 | 8.7 | 0.00 | 0.00 | 0.00 | 82 | 1013.9 |